This demonstration page uses our WeatherBlox Daily Observations layout. Learn more.

Left ArrowRight Arrow

36.17497, -115.13722

Hourly Observations for September 21, 2016

Temp ( °F °C ) Dew Point ( °F °C ) Humidity (%) Winds ( mph kmh ) Pressure ( in mb ) Visibility ( mi km ) Precip ( " mm )
12:53 am 00:53 Clear 71 21.7 61 16.1 71 71 NE 5 7 29.99 1016 10 16.0934 0 0
1:53 am 01:53 Clear 71 21.7 60 15.6 68 68 E 6 9 29.98 1015 10 16.0934 0 0
2:53 am 02:53 Partly Cloudy 70 21.1 60 15.6 71 71 ENE 5 7 29.97 1015 10 16.0934 0 0
3:53 am 03:53 Partly Cloudy 70 21.1 60 15.6 71 71 Calm 29.97 1015 10 16.0934 0 0
4:53 am 04:53 Clear 70 21.1 60 15.6 71 71 Calm 29.97 1015 10 16.0934 0 0
5:53 am 05:53 Clear 69 20.6 60 15.6 73 73 Calm 29.98 1015 10 16.0934 0 0
6:53 am 06:53 Sunny 69 20.6 60 15.6 73 73 Calm 29.98 1015 10 16.0934 0 0
7:53 am 07:53 Mostly Cloudy 70 21.1 60 15.6 71 71 Calm 29.99 1016 10 16.0934 0 0
8:53 am 08:53 Partly Cloudy 72 22.2 60 15.6 66 66 SE 3 6 30 1016 10 16.0934 0 0
9:53 am 09:53 Mostly Sunny 74 23.3 61 16.1 64 64 SSE 6 9 29.99 1016 10 16.0934 0 0
10:53 am 10:53 Partly Cloudy 76 24.4 61 16.1 60 60 SSE 7 11 29.98 1015 10 16.0934 0 0
11:53 am 11:53 Mostly Sunny 77 25 61 16.1 58 58 SE 9 15 29.96 1014 10 16.0934 0 0
12:53 pm 12:53 Partly Cloudy 79 26.1 61 16.1 54 54 S 6 9 29.93 1014 10 16.0934 0 0
1:53 pm 13:53 Partly Cloudy 80 26.7 61 16.1 52 52 ESE 8 13 29.89 1012 10 16.0934 0 0
2:53 pm 14:53 Sunny 80 26.7 62 16.7 54 54 SE 15 24 29.87 1012 10 16.0934 0 0
3:53 pm 15:53 Sunny 81 27.2 62 16.7 53 53 ESE 15 24 29.85 1011 10 16.0934 0 0
4:53 pm 16:53 Sunny 80 26.7 62 16.7 54 54 SE 17 28 29.84 1010 10 16.0934 0 0
5:53 pm 17:53 Mostly Sunny 78 25.6 62 16.7 58 58 SE 14 22 29.83 1010 10 16.0934 0 0
6:53 pm 18:53 Clear 77 25 63 17.2 62 62 ESE 14 22 29.83 1010 10 16.0934 0 0
7:53 pm 19:53 Mostly Clear 76 24.4 63 17.2 64 64 ESE 10 17 29.83 1010 10 16.0934 0 0
8:53 pm 20:53 Clear 75 23.9 63 17.2 66 66 SE 10 17 29.83 1010 10 16.0934 0 0
9:53 pm 21:53 Clear 74 23.3 62 16.7 67 67 E 5 7 29.82 1010 10 16.0934 0 0
10:53 pm 22:53 Clear 74 23.3 63 17.2 69 69 Calm 29.82 1010 10 16.0934 0 0
11:53 pm 23:53 Mostly Clear 73 22.8 63 17.2 71 71 NE 3 6 29.81 1010 10 16.0934 0 0

Powered by AerisWeather